TimeCDT,TemperatureF,Dew PointF,Humidity,Sea Level PressureIn,VisibilityMPH,Wind Direction,Wind SpeedMPH,Gust SpeedMPH,PrecipitationIn,Events,Conditions,WindDirDegrees,DateUTC
12:15 AM,58.8,52.2,79,29.77,10.0,NW,3.5,-,N/A,,Clear,320,2013-07-23 05:15:00
12:35 AM,57.6,52.2,82,29.77,10.0,Calm,Calm,-,N/A,,Clear,0,2013-07-23 05:35:00
12:55 AM,56.7,51.8,84,29.77,10.0,WNW,3.5,-,N/A,,Clear,300,2013-07-23 05:55:00
1:15 AM,56.7,51.6,83,29.78,10.0,WNW,5.8,-,N/A,,Clear,300,2013-07-23 06:15:00
1:35 AM,56.7,51.3,82,29.78,10.0,Calm,Calm,-,N/A,,Clear,0,2013-07-23 06:35:00
1:55 AM,53.6,50.7,90,29.79,10.0,WSW,3.5,-,N/A,,Clear,250,2013-07-23 06:55:00
2:15 AM,54.1,50.9,89,29.79,10.0,WSW,4.6,-,N/A,,Clear,250,2013-07-23 07:15:00
2:35 AM,54.7,50.9,87,29.80,10.0,West,4.6,-,N/A,,Clear,280,2013-07-23 07:35:00
2:55 AM,55.6,50.9,84,29.80,10.0,WNW,6.9,-,N/A,,Clear,300,2013-07-23 07:55:00
3:15 AM,55.6,50.7,84,29.80,10.0,WNW,6.9,-,N/A,,Clear,290,2013-07-23 08:15:00
3:35 AM,55.6,50.9,84,29.80,10.0,NW,5.8,-,N/A,,Scattered Clouds,310,2013-07-23 08:35:00
3:55 AM,55.9,51.1,84,29.80,10.0,NW,8.1,-,N/A,,Clear,320,2013-07-23 08:55:00
4:15 AM,55.4,50.9,85,29.80,10.0,NNW,8.1,-,N/A,,Scattered Clouds,330,2013-07-23 09:15:00
4:35 AM,54.9,48.7,80,29.81,10.0,NNW,12.7,17.3,N/A,,Scattered Clouds,340,2013-07-23 09:35:00
4:55 AM,54.5,46.9,76,29.82,10.0,NNW,16.1,21.9,N/A,,Clear,340,2013-07-23 09:55:00
5:15 AM,53.6,45.9,75,29.82,10.0,North,12.7,23.0,N/A,,Clear,350,2013-07-23 10:15:00
5:35 AM,53.4,45.7,75,29.84,10.0,North,10.4,18.4,N/A,,Scattered Clouds,350,2013-07-23 10:35:00
5:55 AM,52.7,45.7,77,29.85,10.0,NNW,8.1,-,N/A,,Scattered Clouds,330,2013-07-23 10:55:00
6:15 AM,53.6,45.7,75,29.86,10.0,NNW,11.5,-,N/A,,Mostly Cloudy,340,2013-07-23 11:15:00
6:35 AM,53.1,45.7,76,29.87,10.0,NNW,9.2,16.1,N/A,,Mostly Cloudy,340,2013-07-23 11:35:00
6:55 AM,53.8,46.0,75,29.87,10.0,NNW,9.2,17.3,N/A,,Overcast,340,2013-07-23 11:55:00
7:15 AM,54.0,45.9,74,29.88,10.0,NNW,12.7,20.7,N/A,,Overcast,340,2013-07-23 12:15:00
7:35 AM,54.5,46.0,73,29.89,10.0,North,13.8,21.9,N/A,,Overcast,360,2013-07-23 12:35:00
7:55 AM,54.7,46.0,73,29.89,10.0,North,13.8,19.6,N/A,,Overcast,350,2013-07-23 12:55:00
8:15 AM,55.0,46.2,72,29.90,10.0,North,12.7,21.9,N/A,,Overcast,360,2013-07-23 13:15:00
8:35 AM,55.0,46.0,72,29.91,10.0,North,13.8,21.9,N/A,,Overcast,360,2013-07-23 13:35:00
8:55 AM,57.0,46.2,67,29.91,10.0,NNW,17.3,24.2,N/A,,Mostly Cloudy,340,2013-07-23 13:55:00
9:15 AM,56.5,46.0,68,29.92,10.0,North,13.8,20.7,N/A,,Mostly Cloudy,10,2013-07-23 14:15:00
9:35 AM,56.8,46.0,67,29.93,10.0,North,17.3,23.0,N/A,,Overcast,10,2013-07-23 14:35:00
9:55 AM,56.5,43.7,62,29.94,10.0,NNE,13.8,31.1,N/A,,Mostly Cloudy,20,2013-07-23 14:55:00
10:15 AM,57.4,44.6,62,29.95,10.0,North,15.0,24.2,N/A,,Overcast,350,2013-07-23 15:15:00
10:35 AM,57.4,45.0,63,29.96,10.0,North,10.4,21.9,N/A,,Overcast,10,2013-07-23 15:35:00
10:55 AM,58.6,45.1,61,29.98,10.0,North,11.5,20.7,N/A,,Overcast,350,2013-07-23 15:55:00
11:15 AM,59.0,45.3,60,29.98,10.0,NNE,12.7,18.4,N/A,,Overcast,20,2013-07-23 16:15:00
11:35 AM,59.4,45.7,61,29.99,10.0,North,16.1,21.9,N/A,,Overcast,350,2013-07-23 16:35:00
11:55 AM,59.2,45.0,59,29.99,10.0,North,12.7,21.9,N/A,,Overcast,360,2013-07-23 16:55:00
12:15 PM,61.5,44.2,53,29.99,10.0,North,16.1,21.9,N/A,,Mostly Cloudy,350,2013-07-23 17:15:00
12:35 PM,60.1,44.8,57,29.99,10.0,North,15.0,27.6,N/A,,Mostly Cloudy,350,2013-07-23 17:35:00
12:55 PM,61.5,43.5,52,30.00,10.0,North,12.7,21.9,N/A,,Scattered Clouds,360,2013-07-23 17:55:00
1:15 PM,60.6,45.1,57,30.01,10.0,North,11.5,21.9,N/A,,Mostly Cloudy,360,2013-07-23 18:15:00
1:35 PM,61.5,44.6,54,30.01,10.0,NNE,12.7,18.4,N/A,,Mostly Cloudy,20,2013-07-23 18:35:00
1:55 PM,62.6,43.7,50,30.01,10.0,NNW,9.2,19.6,N/A,,Mostly Cloudy,330,2013-07-23 18:55:00
2:15 PM,63.9,44.2,49,30.01,10.0,NNW,15.0,20.7,N/A,,Scattered Clouds,340,2013-07-23 19:15:00
2:35 PM,63.1,43.3,48,30.01,10.0,North,15.0,21.9,N/A,,Scattered Clouds,360,2013-07-23 19:35:00
3:15 PM,63.7,43.2,47,30.01,10.0,NNW,13.8,20.7,N/A,,Scattered Clouds,340,2013-07-23 20:15:00
3:35 PM,64.0,43.9,48,30.02,10.0,North,10.4,18.4,N/A,,Scattered Clouds,350,2013-07-23 20:35:00
3:55 PM,64.2,42.4,45,30.02,10.0,NNE,13.8,20.7,N/A,,Scattered Clouds,20,2013-07-23 20:55:00
4:15 PM,63.5,42.3,46,30.01,10.0,North,13.8,19.6,N/A,,Scattered Clouds,360,2013-07-23 21:15:00
4:35 PM,64.6,42.8,45,30.01,10.0,NNW,12.7,-,N/A,,Scattered Clouds,340,2013-07-23 21:35:00
4:55 PM,65.3,43.5,45,30.01,10.0,NNE,10.4,19.6,N/A,,Scattered Clouds,20,2013-07-23 21:55:00
5:15 PM,64.9,43.0,45,30.01,10.0,NNW,12.7,18.4,N/A,,Clear,330,2013-07-23 22:15:00
5:35 PM,64.8,42.8,45,30.01,10.0,North,10.4,18.4,N/A,,Clear,10,2013-07-23 22:35:00
5:55 PM,64.4,43.0,46,30.01,10.0,NNW,13.8,18.4,N/A,,Clear,340,2013-07-23 22:55:00
6:15 PM,64.0,43.3,47,30.01,10.0,North,9.2,17.3,N/A,,Clear,350,2013-07-23 23:15:00
6:35 PM,63.9,44.6,50,30.02,10.0,NNW,6.9,-,N/A,,Scattered Clouds,340,2013-07-23 23:35:00
6:55 PM,63.5,44.4,50,30.02,10.0,NNW,9.2,-,N/A,,Clear,340,2013-07-23 23:55:00
7:15 PM,63.1,45.1,52,30.02,10.0,North,6.9,-,N/A,,Clear,360,2013-07-24 00:15:00
7:35 PM,62.6,45.3,53,30.02,10.0,North,6.9,-,N/A,,Clear,350,2013-07-24 00:35:00
7:55 PM,61.2,45.7,57,30.02,10.0,North,5.8,-,N/A,,Clear,350,2013-07-24 00:55:00
8:15 PM,58.1,47.8,69,30.03,10.0,Calm,Calm,-,N/A,,Clear,0,2013-07-24 01:15:00
8:35 PM,55.2,48.2,77,30.03,10.0,Calm,Calm,-,N/A,,Clear,0,2013-07-24 01:35:00
8:55 PM,50.7,48.4,92,30.03,10.0,Calm,Calm,-,N/A,,Clear,0,2013-07-24 01:55:00
9:15 PM,49.8,47.7,92,30.03,10.0,Calm,Calm,-,N/A,,Clear,0,2013-07-24 02:15:00
9:35 PM,48.6,46.6,93,30.04,10.0,Calm,Calm,-,N/A,,Clear,0,2013-07-24 02:35:00
9:55 PM,47.8,46.4,95,30.04,10.0,Calm,Calm,-,N/A,,Clear,0,2013-07-24 02:55:00
10:15 PM,47.5,46.2,95,30.04,10.0,Calm,Calm,-,N/A,,Clear,0,2013-07-24 03:15:00
10:35 PM,46.4,45.1,95,30.04,10.0,Calm,Calm,-,N/A,,Clear,0,2013-07-24 03:35:00
10:55 PM,45.5,44.6,97,30.04,10.0,Calm,Calm,-,N/A,,Clear,0,2013-07-24 03:55:00
11:15 PM,45.5,44.6,97,30.04,10.0,Calm,Calm,-,N/A,,Clear,0,2013-07-24 04:15:00
11:35 PM,44.4,43.5,97,30.04,1.5,Calm,Calm,-,N/A,,Mist,0,2013-07-24 04:35:00
11:55 PM,44.6,43.7,97,30.04,10.0,Calm,Calm,-,N/A,,Clear,0,2013-07-24 04:55:00